Key West, FL

2:59 PM EDT on October 01, 2016 (GMT -0400)
Key West International

Weather History for KEYW - August, 2012

Change the Weather History Date:

Monday, August 27, 2012

  Actual Average Record
Temperature  
Mean Temperature 82 °F 84 °F  
Max Temperature 84 °F 89 °F 95 °F (1956)
Min Temperature 79 °F 79 °F 71 °F (1891)
Degree Days  
Heating Degree Days 0 0  
Month to date heating degree days 0 0  
Since 1 June heating degree days 0 0  
Since 1 July heating degree days 0 0  
Cooling Degree Days 17 19  
Month to date cooling degree days 504 530  
Year to date cooling degree days 3253 3115  
Since 1 June cooling degree days 1563 1685  
Growing Degree Days 31 (Base 50)    
Moisture  
Dew Point 77 °F    
Average Humidity 87    
Maximum Humidity 91    
Minimum Humidity 82    
Precipitation  
Precipitation 0.10 in 0.20 in 3.15 in (1875)
Month to date precipitation 3.25 4.57  
Year to date precipitation 37.35 22.86  
Snow  
Snow 0.00 in - - ()
Month to date snowfall 0.0  
Since 1 June snowfall 0.0  
Since 1 July snowfall 0.0  
Snow Depth 0.00 in    
Sea Level Pressure  
Sea Level Pressure 29.75 in    
Wind  
Wind Speed 23 mph (SSE)    
Max Wind Speed 32 mph    
Max Gust Speed 39 mph    
Visibility 8 miles    
Events Rain    
T = Trace of Precipitation, MM = Missing Value Source: NWS Daily Summary

Daily Weather History Graph

Daily Weather History Graph

Search for Another Location

Airport or City:

Trip Planner

Search our weather history database for the weather conditions in past years. The results will help you decide how hot, cold, wet, or windy it might be!

Date:

Astronomy

Aug. 27, 2012 Rise Set
Actual Time 7:06 AM EDT 7:49 PM EDT
Civil Twilight 6:43 AM EDT 8:13 PM EDT
Nautical Twilight 6:15 AM EDT 8:40 PM EDT
Astronomical Twilight 5:48 AM EDT 9:08 PM EDT
Moon 4:52 PM EDT (8/27) 3:07 AM EDT (8/27)
Length of Visible Light 13h 29m
Length of Day
12h 43m
Waxing Gibbous, 82% of the Moon is Illuminated
Aug 27
Waxing Gibbous
Aug 31
Full
Sep 8
Last Quarter
Sep 15
New
Sep 22
First Quarter

Hourly Weather History & Observations

Time (EDT) Temp. Heat Index Dew Point Humidity Pressure Visibility Wind Dir Wind Speed Gust Speed Precip Events Conditions
12:53 AM 81.0 °F 87.3 °F 75.9 °F 85% 29.59 in 10.0 mi SSE 34.5 mph 44.9 mph 0.00 in   Scattered Clouds
1:29 AM 80.6 °F 87.1 °F 77.0 °F 89% 29.60 in 10.0 mi SSE 33.4 mph 46.0 mph 0.00 in   Mostly Cloudy
1:37 AM 80.6 °F 88.1 °F 78.8 °F 94% 29.60 in 10.0 mi SSE 31.1 mph 42.6 mph 0.00 in   Mostly Cloudy
1:46 AM 80.6 °F 87.1 °F 77.0 °F 89% 29.59 in 10.0 mi SSE 33.4 mph 42.6 mph 0.00 in   Mostly Cloudy
1:53 AM 81.0 °F 87.9 °F 77.0 °F 88% 29.60 in 9.0 mi SSE 34.5 mph 46.0 mph 0.00 in   Mostly Cloudy
2:53 AM 80.1 °F 85.8 °F 77.0 °F 90% 29.60 in 10.0 mi SSE 32.2 mph 44.9 mph 0.02 in   Mostly Cloudy
3:53 AM 81.0 °F 87.9 °F 77.0 °F 88% 29.62 in 10.0 mi SSE 33.4 mph 42.6 mph 0.00 in   Mostly Cloudy
4:53 AM 79.0 °F - 77.0 °F 94% 29.63 in 5.0 mi South 26.5 mph 38.0 mph 0.00 in Rain Heavy Rain
5:53 AM 80.1 °F 85.4 °F 75.9 °F 87% 29.65 in 10.0 mi SSE 28.8 mph 38.0 mph 0.01 in   Clear
6:53 AM 81.0 °F 87.9 °F 77.0 °F 88% 29.68 in 10.0 mi South 27.6 mph 38.0 mph 0.00 in Rain Light Rain
7:06 AM 80.6 °F 87.1 °F 77.0 °F 89% 29.68 in 10.0 mi SSE 31.1 mph 40.3 mph 0.00 in   Scattered Clouds
7:53 AM 81.0 °F 87.9 °F 77.0 °F 88% 29.72 in - South 24.2 mph 33.4 mph 0.00 in   Unknown
8:53 AM 82.0 °F 90.2 °F 77.0 °F 85% 29.74 in 10.0 mi South 26.5 mph 32.2 mph N/A   Mostly Cloudy
9:49 AM 82.4 °F 90.9 °F 77.0 °F 84% 29.76 in 10.0 mi South 28.8 mph 39.1 mph N/A   Mostly Cloudy
10:44 AM 82.4 °F 90.9 °F 77.0 °F 84% 29.78 in 10.0 mi South 23.0 mph 35.7 mph N/A   Mostly Cloudy
10:53 AM 82.9 °F 91.8 °F 77.0 °F 82% 29.79 in 10.0 mi South 21.9 mph 34.5 mph N/A   Mostly Cloudy
11:53 AM 84.0 °F 94.8 °F 78.1 °F 82% 29.80 in 10.0 mi South 24.2 mph 34.5 mph N/A   Mostly Cloudy
12:04 PM 84.2 °F 96.1 °F 78.8 °F 84% 29.80 in 10.0 mi South 21.9 mph 33.4 mph N/A   Scattered Clouds
12:53 PM 82.9 °F 93.8 °F 79.0 °F 88% 29.79 in 7.0 mi SSE 26.5 mph 33.4 mph 0.00 in Rain Light Rain
1:07 PM 82.4 °F 94.0 °F 80.6 °F 94% 29.79 in 2.5 mi SSE 28.8 mph 34.5 mph 0.05 in Rain Heavy Rain
1:31 PM 82.4 °F 92.4 °F 78.8 °F 89% 29.79 in 2.5 mi SSE 27.6 mph 39.1 mph N/A   Mostly Cloudy
1:38 PM 82.4 °F 92.4 °F 78.8 °F 89% 29.79 in 5.0 mi SSE 26.5 mph 36.8 mph 0.07 in   Scattered Clouds
1:53 PM 82.0 °F 91.6 °F 79.0 °F 90% 29.80 in 5.0 mi South 28.8 mph 36.8 mph 0.07 in Rain Light Rain
2:00 PM 82.4 °F 92.4 °F 78.8 °F 89% 29.80 in 7.0 mi South 26.5 mph 34.5 mph 0.00 in Rain Light Rain
2:08 PM 82.4 °F 92.4 °F 78.8 °F 89% 29.80 in 10.0 mi South 24.2 mph 35.7 mph 0.00 in Rain Light Rain
2:53 PM 82.9 °F 91.8 °F 77.0 °F 82% 29.80 in 10.0 mi South 23.0 mph 31.1 mph 0.00 in   Clear
3:53 PM 79.0 °F - 73.0 °F 82% 29.82 in 10.0 mi SSW 21.9 mph 39.1 mph N/A   Mostly Cloudy
3:57 PM 78.8 °F - 73.4 °F 83% 29.81 in 5.0 mi SSW 25.3 mph 38.0 mph N/A   Haze
4:53 PM 80.1 °F 85.1 °F 75.0 °F 85% 29.80 in 5.0 mi SSW 23.0 mph 33.4 mph 0.00 in   Haze
5:53 PM 81.0 °F 86.7 °F 75.0 °F 82% 29.82 in 10.0 mi South 15.0 mph 23.0 mph N/A   Clear
6:53 PM 81.0 °F 87.3 °F 75.9 °F 85% 29.82 in 10.0 mi South 16.1 mph 24.2 mph N/A   Clear
7:53 PM 81.0 °F 87.9 °F 77.0 °F 88% 29.84 in 10.0 mi South 17.3 mph - N/A   Clear
8:53 PM 82.0 °F 90.2 °F 77.0 °F 85% 29.86 in 10.0 mi SSE 21.9 mph 28.8 mph N/A   Clear
9:53 PM 82.0 °F 90.2 °F 77.0 °F 85% 29.89 in 10.0 mi SSE 20.7 mph - N/A   Clear
10:53 PM 82.0 °F 90.2 °F 77.0 °F 85% 29.91 in 10.0 mi SSE 20.7 mph - N/A   Clear
11:53 PM 81.0 °F 87.9 °F 77.0 °F 88% 29.91 in 10.0 mi South 15.0 mph - N/A   Clear